IQUEBE275 Weather Reports


time (UTC)temp
C
wind
direction
speed
KPH
gust
KPH
rain 1hr
cm
rain 24hr
cm
rain mn
cm
humidity
%
barometer
mb
20260505230009 13 253 4.8 0.0 0.00 0.00 0.56 47 999.1
20260505225512 13 254 4.8 0.0 0.00 0.00 0.56 47 999.2
20260505225052 13 256 3.2 0.0 0.00 0.00 0.56 47 999.0
20260505224558 14 254 4.8 0.0 0.00 0.00 0.56 48 998.6
20260505224110 14 254 4.8 0.0 0.00 0.00 0.56 48 998.6
20260505222004 14 253 4.8 0.0 0.00 0.00 0.53 51 998.2
20260505221512 14 252 3.2 0.0 0.00 0.00 0.53 52 998.1
20260505221017 14 314 3.2 0.0 0.00 0.00 0.53 51 997.8
20260505220600 14 330 6.4 0.0 0.00 0.00 0.53 51 997.6
20260505220112 14 56 8.0 0.0 0.00 0.00 0.53 50 997.7
20260505212504 16 355 14.5 0.0 0.00 0.00 0.53 58 997.2
20260505212007 16 326 12.9 0.0 0.00 0.00 0.53 61 997.2
20260505211508 17 311 14.5 0.0 0.00 0.00 0.53 62 997.0
20260505211010 17 323 14.5 0.0 0.00 0.00 0.53 64 996.8
20260505210518 18 304 16.1 0.0 0.00 0.00 0.51 65 996.8
20260505210052 19 291 19.3 0.0 0.00 0.00 0.51 65 996.4
20260505205518 20 271 17.7 0.0 0.00 0.00 0.51 64 996.2
20260505205014 20 292 17.7 0.0 0.00 0.00 0.51 65 995.1
20260505204504 20 245 19.3 0.0 0.00 0.00 0.51 65 995.2
20260505202612 20 236 16.1 0.0 0.00 0.00 0.51 65 995.4
20260505202103 20 261 16.1 0.0 0.00 0.00 0.51 65 995.7
20260505201550 20 229 14.5 0.0 0.00 0.00 0.51 65 995.5
20260505201017 20 261 12.9 0.0 0.00 0.00 0.51 65 995.6
20260505200556 20 260 12.9 0.0 0.00 0.00 0.51 65 995.7
20260505200005 20 278 11.3 0.0 0.00 0.00 0.51 64 995.6
20260505195106 20 272 11.3 0.0 0.00 0.00 0.48 63 995.9
20260505194613 20 258 9.7 0.0 0.00 0.00 0.48 63 996.0
20260505194102 20 242 9.7 0.0 0.00 0.00 0.48 62 996.3
20260505193600 20 257 11.3 0.0 0.00 0.00 0.48 62 996.2
20260505193015 19 228 11.3 0.0 0.00 0.00 0.48 58 996.3
20260505192514 18 286 8.0 0.0 0.00 0.00 0.48 56 996.3
20260505192013 18 252 6.4 0.0 0.00 0.00 0.48 53 996.5
20260505191512 17 229 4.8 0.0 0.00 0.00 0.48 50 996.6
20260505191049 17 198 3.2 0.0 0.00 0.00 0.48 48 996.7
20260505190545 16 221 4.8 0.0 0.00 0.00 0.48 47 996.8
20260505190006 16 226 8.0 0.0 0.00 0.00 0.48 41 996.9
20260505185506 16 240 4.8 0.0 0.00 0.00 0.48 35 996.9
20260505185005 16 186 1.6 0.0 0.00 0.00 0.48 33 997.0
20260505184502 15 186 1.6 0.0 0.00 0.00 0.48 32 997.1
20260505184007 15 186 1.6 0.0 0.00 0.00 0.48 32 997.0
20260505183504 15 314 1.6 0.0 0.00 0.00 0.48 32 997.1
20260505183008 15 315 1.6 0.0 0.00 0.00 0.48 33 997.2
20260505182547 14 315 1.6 0.0 0.00 0.00 0.48 33 997.3
20260505182056 15 315 0.0 0.0 0.00 0.00 0.48 32 997.4
20260505181602 14 315 0.0 0.0 0.00 0.00 0.48 32 997.5
20260505175004 13 315 0.0 0.0 0.00 0.00 0.48 35 997.6
20260505174506 13 315 0.0 0.0 0.00 0.00 0.48 36 997.8
20260505174005 13 315 0.0 0.0 0.00 0.00 0.48 37 997.9
20260505173512 13 315 0.0 0.0 0.00 0.00 0.46 38 998.0
20260505173021 13 315 0.0 0.0 0.00 0.00 0.41 39 997.9
20260505172513 13 315 0.0 0.0 0.00 0.00 0.38 39 997.7
20260505172016 13 321 1.6 0.0 0.00 0.00 0.33 40 997.8
20260505171556 13 321 3.2 0.0 0.00 0.00 0.33 41 997.7
20260505171058 13 320 3.2 0.0 0.00 0.00 0.33 43 997.8
20260505170601 13 314 3.2 0.0 0.00 0.00 0.33 44 998.0
20260505170105 13 325 1.6 0.0 0.00 0.00 0.33 46 997.8
20260505165601 13 325 1.6 0.0 0.00 0.00 0.28 49 998.0
20260505165102 14 291 3.2 0.0 0.00 0.00 0.28 51 998.0
20260505164606 14 265 4.8 0.0 0.00 0.00 0.28 54 998.0
20260505163009 16 277 12.9 0.0 0.00 0.00 0.15 64 998.3
20260505162508 16 262 11.3 0.0 0.00 0.00 0.00 65 998.3
20260505162012 16 276 9.7 0.0 0.00 0.00 0.00 65 998.2
20260505161511 17 275 11.3 0.0 0.00 0.00 0.00 66 998.2
20260505161014 17 245 12.9 0.0 0.00 0.00 0.00 66 998.3
20260505160544 17 233 12.9 0.0 0.00 0.00 0.00 66 998.4
20260505153116 19 219 9.7 0.0 0.00 0.00 0.00 63 998.2
20260505152601 19 276 8.0 0.0 0.00 0.00 0.00 60 998.1
20260505140503 15 112 1.6 0.0 0.00 0.00 0.00 63 998.9
20260505123514 11 112 0.0 0.0 0.00 0.00 0.00 67 999.4
20260505123019 11 111 0.0 0.0 0.00 0.00 0.00 67 999.5
20260505122602 11 112 0.0 0.0 0.00 0.00 0.00 67 999.5
20260505120542 10 111 1.6 0.0 0.00 0.00 0.00 66 999.8
20260505120053 10 111 1.6 0.0 0.00 0.00 0.00 65 999.9
20260505115605 10 44 0.0 0.0 0.00 0.00 0.00 64 999.9
20260505115108 10 44 0.0 0.0 0.00 0.00 0.00 62 999.9
20260505114006 8 44 0.0 0.0 0.00 0.00 0.00 55 999.9
20260505113515 8 44 0.0 0.0 0.00 0.00 0.00 54 999.9
20260505113100 7 44 0.0 0.0 0.00 0.00 0.00 53 999.9
20260505111549 6 44 0.0 0.0 0.00 0.00 0.00 46 1000.1
20260505111049 6 44 0.0 0.0 0.00 0.00 0.00 46 1000.1
20260505110558 5 44 0.0 0.0 0.00 0.00 0.00 46 1000.0
20260505110110 5 44 0.0 0.0 0.00 0.00 0.00 45 1000.1
20260505102005 3 44 1.6 0.0 0.00 0.00 0.00 45 1000.1
20260505101609 3 45 3.2 0.0 0.00 0.00 0.00 45 1000.1
20260505033511 6 53 1.6 0.0 0.00 0.00 0.15 61 1003.1
20260505033056 6 53 1.6 0.0 0.00 0.00 0.15 61 1003.1
20260505032011 6 53 1.6 0.0 0.00 0.00 0.15 62 1002.9
20260505031617 6 53 1.6 0.0 0.00 0.00 0.15 62 1003.1
20260505031002 6 53 0.0 0.0 0.00 0.00 0.15 62 1003.1
20260505030556 6 53 0.0 0.0 0.00 0.00 0.15 62 1003.2
20260505030114 6 53 1.6 0.0 0.00 0.00 0.15 62 1003.3
20260505025517 6 53 1.6 0.0 0.00 0.00 0.15 62 1003.3
20260505025104 6 53 3.2 0.0 0.00 0.00 0.15 62 1003.3
20260505024513 6 55 3.2 0.0 0.00 0.00 0.15 62 1003.2
20260505024054 6 49 3.2 0.0 0.00 0.00 0.15 62 1003.2
20260505023616 6 48 4.8 0.0 0.00 0.00 0.15 62 1003.3
20260505023044 6 49 3.2 0.0 0.00 0.00 0.15 62 1003.3
20260505022606 6 51 3.2 0.0 0.00 0.00 0.15 62 1003.4
20260505022006 6 48 3.2 0.0 0.00 0.00 0.15 62 1003.5
20260505021611 6 49 3.2 0.0 0.00 0.00 0.15 63 1003.5
20260505020543 6 47 3.2 0.0 0.00 0.00 0.15 63 1003.6
20260505015502 6 74 1.6 0.0 0.00 0.00 0.15 64 1003.6
20260505015052 6 74 1.6 0.0 0.00 0.00 0.15 64 1003.6
20260505014013 6 74 3.2 0.0 0.00 0.00 0.15 65 1003.7
20260505013603 6 62 3.2 0.0 0.00 0.00 0.15 65 1003.8
20260505013004 6 64 3.2 0.0 0.00 0.00 0.15 65 1003.8
20260505012552 6 61 3.2 0.0 0.00 0.00 0.15 65 1003.7
20260505011550 7 17 3.2 0.0 0.00 0.00 0.15 66 1003.7
20260505011104 7 13 3.2 0.0 0.00 0.00 0.15 66 1003.8
20260505010503 7 260 1.6 0.0 0.00 0.00 0.15 67 1003.9
20260505010054 7 260 0.0 0.0 0.00 0.00 0.15 67 1003.9
20260505005617 7 260 0.0 0.0 0.00 0.00 0.15 67 1003.9
20260505005042 7 260 0.0 0.0 0.00 0.00 0.15 67 1003.9
20260505004606 7 260 0.0 0.0 0.00 0.00 0.15 67 1003.8
20260505004003 7 260 0.0 0.0 0.00 0.00 0.15 68 1003.7
20260505003553 7 260 0.0 0.0 0.00 0.00 0.15 68 1003.7
20260505002516 7 260 0.0 0.0 0.00 0.00 0.15 69 1003.5
20260505002106 7 260 0.0 0.0 0.00 0.00 0.15 69 1003.4
20260505001536 8 260 0.0 0.0 0.00 0.00 0.15 69 1003.4
20260505001056 8 260 0.0 0.0 0.00 0.00 0.15 69 1003.4
20260505000046 8 260 0.0 0.0 0.00 0.00 0.15 69 1003.2
20260504235611 8 260 0.0 0.0 0.00 0.00 0.15 69 1003.3
20260504235008 8 260 1.6 0.0 0.00 0.00 0.15 69 1003.3
20260504234556 8 260 1.6 0.0 0.00 0.00 0.15 69 1003.3
20260504233545 9 260 1.6 0.0 0.00 0.00 0.15 69 1003.2
20260504233108 9 260 1.6 0.0 0.00 0.00 0.15 69 1003.2
20260504232508 9 260 3.2 0.0 0.00 0.00 0.15 69 1003.0
20260504232057 9 261 3.2 0.0 0.00 0.00 0.15 69 1003.0
20260504231621 9 279 3.2 0.0 0.00 0.00 0.15 69 1003.0
20260504231047 9 261 3.2 0.0 0.00 0.00 0.15 69 1003.1
20260504230607 9 242 4.8 0.0 0.00 0.00 0.15 69 1003.1